This is the latest recevied weather packets stored in our database for station/object 4S6DRJ-13. If no packets are shown the sender has not sent any weather packets the latest 10 day(s).
| Time | Temp. | Humidity | Pressure | Rain* | Wind** | Luminosity | Snow |
|---|---|---|---|---|---|---|---|
| 1787740863 | 29.44° C | 77% | 1008.1 hPa | 0 mm | 1.34 m/s, 258° | 290 W/m² | - |
| 1787740802 | 29.44° C | 77% | 1008.3 hPa | 0 mm | 1.79 m/s, 337° | 319 W/m² | - |
| 1787740742 | 29.44° C | 76% | 1008.3 hPa | 0 mm | 1.34 m/s, 172° | 335 W/m² | - |
| 1787740681 | 29.44° C | 76% | 1008.3 hPa | 0 mm | 1.79 m/s, 224° | 351 W/m² | - |
| 1787740619 | 29.44° C | 77% | 1008.5 hPa | 0 mm | 0.89 m/s, 216° | 368 W/m² | - |
| 1787740559 | 29.44° C | 77% | 1008.5 hPa | 0 mm | 0.89 m/s, 331° | 390 W/m² | - |
| 1787740497 | 29.44° C | 78% | 1008.4 hPa | 0 mm | 1.34 m/s, 228° | 389 W/m² | - |
| 1787740437 | 29.44° C | 78% | 1008.2 hPa | 0 mm | 2.24 m/s, 189° | 401 W/m² | - |
| 1787740376 | 29.44° C | 78% | 1008.3 hPa | 0 mm | 0.89 m/s, 211° | 392 W/m² | - |
| 1787740315 | 29.44° C | 78% | 1008.4 hPa | 0 mm | 2.24 m/s, 342° | 316 W/m² | - |
| 1787740254 | 29.44° C | 78% | 1008.2 hPa | 0 mm | 2.24 m/s, 223° | 328 W/m² | - |
| 1787740193 | 29.44° C | 79% | 1008.3 hPa | 0 mm | 1.34 m/s, 195° | 432 W/m² | - |
| 1787740134 | 29.44° C | 79% | 1008.3 hPa | 0 mm | 2.24 m/s, 243° | 370 W/m² | - |
| 1787740071 | 29.44° C | 79% | 1008.3 hPa | 0 mm | 0.89 m/s, 203° | 332 W/m² | - |
| 1787740010 | 29.44° C | 79% | 1008.3 hPa | 0 mm | 1.79 m/s, 252° | 340 W/m² | - |
| 1787739949 | 29.44° C | 79% | 1008.3 hPa | 0 mm | 1.79 m/s, 232° | 370 W/m² | - |
| 1787739888 | 29.44° C | 79% | 1008.2 hPa | 0 mm | 1.79 m/s, 208° | 363 W/m² | - |
| 1787739827 | 29.44° C | 79% | 1008.2 hPa | 0 mm | 2.24 m/s, 260° | 307 W/m² | - |
| 1787739766 | 29.44° C | 78% | 1008.3 hPa | 0 mm | 4.02 m/s, 208° | 287 W/m² | - |
| 1787739705 | 29.44° C | 78% | 1008.2 hPa | 0 mm | 2.68 m/s, 14° | 288 W/m² | - |
| 1787739644 | 29.44° C | 78% | 1008.2 hPa | 0 mm | 0.89 m/s, 228° | 260 W/m² | - |
| 1787739583 | 29.44° C | 78% | 1008.3 hPa | 0 mm | 2.24 m/s, 271° | 251 W/m² | - |
| 1787739522 | 29.44° C | 79% | 1008.2 hPa | 0 mm | 0.89 m/s, 237° | 275 W/m² | - |
| 1787739461 | 29.44° C | 79% | 1008.1 hPa | 0 mm | 2.24 m/s, 253° | 287 W/m² | - |
| 1787739400 | 28.89° C | 79% | 1008.3 hPa | 0 mm | 2.24 m/s, 239° | 327 W/m² | - |
* Rain latest hour (hover to see other rain measurements)
** Current wind speed in m/s (hover to see current wind gust speed)